Weather History for Beach, ND

Change the Weather History Date:

Friday, April 19, 2013

  Actual Average (KGDV) Record (KGDV)
Temperature  
Mean Temperature 32 °F -  
Max Temperature 37 °F 55 °F 73 °F (2008)
Min Temperature 26 °F 31 °F 17 °F (2002)
Degree Days  
Heating Degree Days 34    
Moisture  
Dew Point 23 °F    
Average Humidity 74    
Maximum Humidity 100    
Minimum Humidity 48    
Precipitation  
Precipitation 0.15 in - - ()
Sea Level Pressure  
Sea Level Pressure 29.97 in    
Wind  
Wind Speed 11 mph (SE)    
Max Wind Speed 17 mph    
Max Gust Speed 23 mph    
Visibility 9 miles    
Events Snow    
Averages and records for this station are not official NWS values.
T = Trace of Precipitation, MM = Missing Value Source: NWS Daily Summary

Daily Weather History Graph

Daily Weather History Graph

Search for Another Location

Airport:

Trip Planner

Search our weather history database for the weather conditions in past years. The results will help you decide how hot, cold, wet, or windy it might be!

Date:

Astronomy

Apr. 19, 2013 Rise Set
Actual Time 6:00 AM MDT 7:50 PM MDT
Civil Twilight 5:28 AM MDT 8:22 PM MDT
Nautical Twilight 4:48 AM MDT 9:02 PM MDT
Astronomical Twilight 4:05 AM MDT 9:46 PM MDT
Moon 1:14 PM MDT (4/19) 2:41 AM MDT (4/19)
Length of Visible Light 14h 54m
Length of Day
13h 49m
Waxing Gibbous, 62% of the Moon is Illuminated
Apr 19
Waxing Gibbous
Apr 25
Full
May 2
Last Quarter
May 9
New
May 17
First Quarter

Hourly Weather History & Observations

Time (MDT) Temp. Windchill Dew Point Humidity Pressure Visibility Wind Dir Wind Speed Gust Speed Precip Events Conditions
12:15 AM 26.6 °F 22.6 °F 26.6 °F 100% 29.95 in 10.0 mi WSW 3.5 mph - N/A   Scattered Clouds
12:35 AM 26.6 °F 17.5 °F 26.6 °F 100% 29.95 in 10.0 mi West 9.2 mph - N/A   Mostly Cloudy
12:55 AM 26.6 °F 16.2 °F 26.6 °F 100% 29.94 in 10.0 mi West 11.5 mph - N/A   Scattered Clouds
1:15 AM 26.6 °F 16.8 °F 26.6 °F 100% 29.94 in 10.0 mi West 10.4 mph - N/A   Clear
1:35 AM 28.4 °F 19.1 °F 28.4 °F 100% 29.95 in 10.0 mi WNW 10.4 mph - N/A   Scattered Clouds
1:55 AM 28.4 °F 18.5 °F 28.4 °F 100% 29.94 in 10.0 mi WNW 11.5 mph - N/A   Mostly Cloudy
2:15 AM 28.4 °F 18.5 °F 26.6 °F 93% 29.95 in 10.0 mi WNW 11.5 mph - N/A   Scattered Clouds
2:35 AM 28.4 °F 19.1 °F 28.4 °F 100% 29.95 in 10.0 mi WNW 10.4 mph - N/A   Mostly Cloudy
2:55 AM 30.2 °F 20.2 °F 28.4 °F 93% 29.95 in 10.0 mi WNW 12.7 mph - N/A   Overcast
3:15 AM 30.2 °F 20.8 °F 28.4 °F 93% 29.96 in 10.0 mi WNW 11.5 mph - N/A   Overcast
3:35 AM 30.2 °F 20.8 °F 28.4 °F 93% 29.96 in 10.0 mi NW 11.5 mph - N/A   Overcast
3:55 AM 30.2 °F 20.8 °F 28.4 °F 93% 29.96 in 10.0 mi NW 11.5 mph - N/A   Overcast
4:15 AM 30.2 °F 21.3 °F 28.4 °F 93% 29.96 in 10.0 mi NW 10.4 mph - N/A   Overcast
4:55 AM 28.4 °F 19.1 °F 28.4 °F 100% 29.97 in 10.0 mi NW 10.4 mph - N/A   Overcast
5:15 AM 28.4 °F 20.4 °F 28.4 °F 100% 29.97 in 10.0 mi NW 8.1 mph - N/A   Overcast
5:35 AM 28.4 °F 22.2 °F 28.4 °F 100% 29.97 in 10.0 mi West 5.8 mph - N/A   Overcast
5:55 AM 28.4 °F 21.2 °F 28.4 °F 100% 29.97 in 10.0 mi WNW 6.9 mph - N/A   Overcast
6:15 AM 28.4 °F 21.2 °F 28.4 °F 100% 29.97 in 10.0 mi NW 6.9 mph - N/A   Overcast
6:35 AM 28.4 °F 20.4 °F 28.4 °F 100% 29.98 in 7.0 mi NW 8.1 mph - N/A   Overcast
6:55 AM 28.4 °F 22.2 °F 28.4 °F 100% 29.98 in 4.0 mi NW 5.8 mph - 0.03 in Snow Light Snow
7:15 AM 28.4 °F 23.3 °F 28.4 °F 100% 29.98 in 5.0 mi NW 4.6 mph - N/A Snow Light Snow
7:35 AM 28.4 °F 23.3 °F 28.4 °F 100% 29.98 in 3.0 mi NNW 4.6 mph - 0.02 in Snow Light Snow
7:55 AM 28.4 °F 20.4 °F 28.4 °F 100% 29.99 in 2.5 mi ENE 8.1 mph - 0.07 in Snow Light Snow
8:15 AM 26.6 °F 16.8 °F 26.6 °F 100% 29.99 in 3.0 mi ESE 10.4 mph - 0.01 in Snow Light Snow
8:35 AM 26.6 °F 17.5 °F 24.8 °F 93% 30.00 in 9.0 mi ESE 9.2 mph - 0.02 in Snow Light Snow
8:55 AM 28.4 °F 19.7 °F 24.8 °F 86% 30.00 in 5.0 mi SE 9.2 mph - 0.03 in Snow Light Snow
9:15 AM 26.6 °F 18.2 °F 24.8 °F 93% 30.01 in 3.0 mi SE 8.1 mph - 0.01 in Snow Light Snow
9:35 AM 28.4 °F 19.1 °F 24.8 °F 86% 30.01 in 7.0 mi SE 10.4 mph - 0.02 in Snow Light Snow
9:55 AM 28.4 °F 18.5 °F 23.0 °F 80% 30.01 in 10.0 mi SE 11.5 mph - 0.02 in   Overcast
10:15 AM 30.2 °F 20.8 °F 24.8 °F 80% 30.02 in 10.0 mi SE 11.5 mph - N/A   Overcast
10:35 AM 32.0 °F 22.5 °F 21.2 °F 64% 30.02 in 10.0 mi SE 12.7 mph - N/A   Overcast
10:55 AM 32.0 °F 22.1 °F 21.2 °F 64% 30.02 in 10.0 mi SE 13.8 mph - N/A   Overcast
11:15 AM 32.0 °F 21.2 °F 23.0 °F 69% 30.02 in 10.0 mi SE 16.1 mph - N/A   Overcast
11:35 AM 32.0 °F 23.0 °F 19.4 °F 60% 30.02 in 10.0 mi ESE 11.5 mph - N/A   Overcast
11:55 AM 33.8 °F 23.9 °F 19.4 °F 56% 30.02 in 10.0 mi SE 15.0 mph - N/A   Overcast
12:15 PM 33.8 °F 24.8 °F 19.4 °F 56% 30.01 in 10.0 mi SE 12.7 mph - N/A   Overcast
12:35 PM 33.8 °F 24.3 °F 19.4 °F 56% 30.01 in 10.0 mi SE 13.8 mph - N/A   Overcast
12:55 PM 35.6 °F 26.2 °F 19.4 °F 52% 30.00 in 10.0 mi SSE 15.0 mph 20.7 mph N/A   Overcast
1:15 PM 35.6 °F 27.1 °F 19.4 °F 52% 30.00 in 10.0 mi SSE 12.7 mph - N/A   Overcast
1:35 PM 35.6 °F 26.2 °F 19.4 °F 52% 30.00 in 10.0 mi SE 15.0 mph 20.7 mph N/A   Overcast
1:55 PM 37.4 °F 29.3 °F 21.2 °F 52% 29.99 in 10.0 mi SE 12.7 mph 16.1 mph N/A   Overcast
2:15 PM 35.6 °F 26.6 °F 19.4 °F 52% 29.99 in 10.0 mi SSE 13.8 mph - N/A   Mostly Cloudy
2:35 PM 37.4 °F 29.8 °F 19.4 °F 48% 29.99 in 10.0 mi SE 11.5 mph 18.4 mph N/A   Scattered Clouds
2:55 PM 37.4 °F 28.9 °F 21.2 °F 52% 29.98 in 10.0 mi SSE 13.8 mph 20.7 mph N/A   Partly Cloudy
3:15 PM 37.4 °F 28.9 °F 19.4 °F 48% 29.98 in 10.0 mi SE 13.8 mph - N/A   Partly Cloudy
3:35 PM 37.4 °F 28.9 °F 19.4 °F 48% 29.98 in 10.0 mi SE 13.8 mph 18.4 mph N/A   Partly Cloudy
3:55 PM 37.4 °F 28.9 °F 21.2 °F 52% 29.97 in 10.0 mi SSE 13.8 mph 18.4 mph N/A   Partly Cloudy
4:15 PM 37.4 °F 29.3 °F 19.4 °F 48% 29.97 in 10.0 mi SE 12.7 mph 17.3 mph N/A   Clear
4:35 PM 37.4 °F 28.9 °F 19.4 °F 48% 29.96 in 10.0 mi East 13.8 mph 18.4 mph N/A   Scattered Clouds
4:55 PM 35.6 °F 25.9 °F 19.4 °F 52% 29.96 in 10.0 mi East 16.1 mph 19.6 mph N/A   Partly Cloudy
5:15 PM 35.6 °F 26.2 °F 19.4 °F 52% 29.96 in 10.0 mi ESE 15.0 mph 19.6 mph N/A   Clear
5:35 PM 35.6 °F 26.2 °F 21.2 °F 56% 29.96 in 10.0 mi ESE 15.0 mph 20.7 mph N/A   Clear
5:55 PM 35.6 °F 26.2 °F 21.2 °F 56% 29.96 in 10.0 mi ESE 15.0 mph 20.7 mph N/A   Scattered Clouds
6:15 PM 33.8 °F 23.5 °F 19.4 °F 56% 29.95 in 10.0 mi ESE 16.1 mph 20.7 mph N/A   Scattered Clouds
6:35 PM 32.0 °F 21.6 °F 19.4 °F 60% 29.95 in 10.0 mi ESE 15.0 mph 21.9 mph N/A   Mostly Cloudy
6:55 PM 32.0 °F 21.6 °F 19.4 °F 60% 29.95 in 10.0 mi ESE 15.0 mph - N/A   Overcast
7:15 PM 32.0 °F 22.1 °F 19.4 °F 60% 29.95 in 10.0 mi ESE 13.8 mph - N/A   Overcast
7:35 PM 32.0 °F 21.2 °F 19.4 °F 60% 29.94 in 10.0 mi ESE 16.1 mph - N/A   Overcast
7:55 PM 32.0 °F 20.8 °F 17.6 °F 55% 29.94 in 10.0 mi ESE 17.3 mph - N/A   Overcast
8:15 PM 30.2 °F 19.3 °F 19.4 °F 64% 29.94 in 10.0 mi ESE 15.0 mph - N/A   Overcast
8:35 PM 30.2 °F 18.9 °F 19.4 °F 64% 29.95 in 10.0 mi ESE 16.1 mph - N/A   Overcast
8:55 PM 30.2 °F 18.9 °F 19.4 °F 64% 29.95 in 10.0 mi ESE 16.1 mph 23.0 mph N/A   Overcast
9:15 PM 30.2 °F 18.5 °F 19.4 °F 64% 29.95 in 10.0 mi SE 17.3 mph 23.0 mph N/A   Overcast
9:35 PM 30.2 °F 18.9 °F 19.4 °F 64% 29.95 in 10.0 mi SE 16.1 mph 21.9 mph N/A   Overcast
9:55 PM 30.2 °F 19.3 °F 19.4 °F 64% 29.95 in 10.0 mi ESE 15.0 mph - N/A   Overcast
10:15 PM 30.2 °F 20.8 °F 19.4 °F 64% 29.96 in 10.0 mi ESE 11.5 mph 17.3 mph N/A   Overcast
10:35 PM 28.4 °F 18.0 °F 19.4 °F 69% 29.95 in 10.0 mi SE 12.7 mph 18.4 mph N/A   Overcast
10:55 PM 28.4 °F 17.5 °F 19.4 °F 69% 29.94 in 10.0 mi SE 13.8 mph 21.9 mph N/A   Overcast
11:15 PM 28.4 °F 17.5 °F 19.4 °F 69% 29.94 in 10.0 mi ESE 13.8 mph - N/A   Overcast
11:35 PM 28.4 °F 16.2 °F 19.4 °F 69% 29.94 in 10.0 mi ESE 17.3 mph - N/A   Overcast
11:55 PM 28.4 °F 17.0 °F 21.2 °F 74% 29.94 in 10.0 mi SE 15.0 mph 18.4 mph N/A   Overcast